DW0542 Weather Reports


time (UTC)temp
C
wind
direction
speed
KPH
gust
KPH
rain 1hr
cm
rain 24hr
cm
rain mn
cm
humidity
%
barometer
mb
20260505200042 24 157 0.0 29.0 0.00 0.00 0.00 47 1007.6
20260505194547 25 171 0.0 17.7 0.00 0.00 0.00 47 1007.7
20260505193037 25 169 0.0 29.0 0.00 0.00 0.00 46 1007.6
20260505191537 25 178 1.6 17.7 0.00 0.00 0.00 45 1007.7
20260505190034 25 168 3.2 16.1 0.00 0.00 0.00 46 1007.9
20260505184535 25 157 1.6 20.9 0.00 0.00 0.00 45 1008.0
20260505183032 25 170 0.0 17.7 0.00 0.00 0.00 44 1008.0
20260505181529 25 183 6.4 22.5 0.00 0.00 0.00 45 1008.0
20260505180026 24 176 0.0 11.3 0.00 0.00 0.00 49 1008.3
20260505174525 24 114 3.2 17.7 0.00 0.00 0.00 51 1008.6
20260505171521 24 119 3.2 17.7 0.00 0.00 0.00 50 1009.0
20260505170024 23 125 0.0 29.0 0.00 0.00 0.00 52 1008.9
20260505164537 23 173 3.2 30.6 0.00 0.00 0.00 50 1009.3
20260505163051 22 238 1.6 14.5 0.00 0.00 0.00 53 1009.3
20260505161543 22 181 3.2 22.5 0.00 0.00 0.00 56 1009.7
20260505153037 19 212 1.6 11.3 0.00 0.00 0.00 63 1010.4
20260505151526 18 197 0.0 14.5 0.00 0.00 0.00 64 1010.6
20260505124547 13 134 0.0 8.0 0.00 0.00 0.00 79 1011.1
20260505123043 13 196 0.0 12.9 0.00 0.00 0.00 82 1011.2
20260505121543 12 209 4.8 16.1 0.00 0.00 0.00 82 1011.2
20260505120041 12 193 0.0 8.0 0.00 0.00 0.00 85 1011.0
20260505114545 11 176 1.6 12.9 0.00 0.00 0.00 86 1011.1
20260505113020 11 159 0.0 11.3 0.00 0.00 0.00 88 1011.0
20260505111520 11 153 0.0 4.8 0.00 0.00 0.00 89 1010.8
20260505101652 8 85 0.0 0.0 0.00 0.00 0.00 90 1010.3
20260505100052 8 84 0.0 0.0 0.00 0.00 0.00 89 1010.3
20260505094546 8 84 0.0 0.0 0.00 0.00 0.00 89 1010.2
20260505093046 8 84 0.0 0.0 0.00 0.00 0.00 89 1010.2
20260505091555 8 84 0.0 0.0 0.00 0.00 0.00 89 1010.4
20260505090054 8 84 0.0 0.0 0.00 0.00 0.00 89 1010.5
20260505084545 8 84 0.0 0.0 0.00 0.00 0.00 89 1010.5
20260505083047 8 84 0.0 0.0 0.00 0.00 0.00 88 1010.5
20260505081555 8 84 0.0 0.0 0.00 0.00 0.00 88 1010.6
20260505080042 8 84 0.0 0.0 0.00 0.00 0.00 87 1010.8
20260505074547 8 84 0.0 0.0 0.00 0.00 0.00 87 1010.9
20260505073036 8 84 0.0 0.0 0.00 0.00 0.00 87 1010.8
20260505071533 8 84 0.0 0.0 0.00 0.00 0.00 86 1010.7
20260505070030 8 84 0.0 0.0 0.00 0.00 0.00 86 1010.9
20260505064527 8 84 0.0 0.0 0.00 0.00 0.00 86 1010.9
20260505063034 8 84 0.0 0.0 0.00 0.00 0.00 85 1010.9
20260505061531 9 84 0.0 0.0 0.00 0.00 0.00 85 1011.1
20260505060024 9 85 0.0 0.0 0.00 0.00 0.00 83 1011.0
20260505054524 9 85 0.0 0.0 0.00 0.00 0.00 83 1011.1
20260505053018 9 99 0.0 0.0 0.00 0.00 0.00 82 1011.2
20260505051517 10 100 0.0 0.0 0.00 0.00 0.00 81 1011.2
20260505041508 10 98 0.0 6.4 0.00 0.00 0.00 76 1011.5
20260505040007 11 104 0.0 0.0 0.00 0.00 0.00 74 1011.4
20260505034533 11 104 0.0 0.0 0.00 0.00 0.00 73 1011.3
20260505033040 11 146 0.0 8.0 0.00 0.00 0.00 73 1011.1
20260505031528 11 184 0.0 8.0 0.00 0.00 0.00 72 1011.1
20260505030025 11 194 0.0 4.8 0.00 0.00 0.00 71 1011.1
20260505024547 12 201 0.0 11.3 0.00 0.00 0.00 70 1011.1
20260505023021 12 187 0.0 12.9 0.00 0.00 0.00 68 1011.2
20260505021536 12 153 1.6 14.5 0.00 0.00 0.00 67 1011.4
20260505020016 12 211 4.8 17.7 0.00 0.00 0.00 66 1011.4
20260505014518 12 189 0.0 16.1 0.00 0.00 0.00 65 1011.2
20260505013011 12 200 0.0 9.7 0.00 0.00 0.00 64 1011.2
20260505011507 13 95 0.0 12.9 0.00 0.00 0.00 61 1011.1
20260505010003 13 158 0.0 0.0 0.00 0.00 0.00 60 1010.7
20260505004605 13 192 3.2 17.7 0.00 0.00 0.00 60 1010.4
20260505003056 14 191 1.6 14.5 0.00 0.00 0.00 58 1010.2
20260505001523 15 179 0.0 11.3 0.00 0.00 0.00 55 1009.9
20260505000019 15 176 0.0 8.0 0.00 0.00 0.00 53 1009.5
20260504234544 16 149 0.0 8.0 0.00 0.00 0.00 50 1009.3
20260504233055 16 123 0.0 14.5 0.00 0.00 0.00 49 1009.1
20260504231508 17 171 0.0 14.5 0.00 0.00 0.00 48 1008.9
20260504230005 17 173 3.2 22.5 0.00 0.00 0.00 47 1008.8
20260504224502 17 178 0.0 22.5 0.00 0.00 0.00 47 1008.6
20260504223103 18 159 3.2 24.1 0.00 0.00 0.00 45 1008.5
20260504221605 18 185 8.0 24.1 0.00 0.00 0.00 45 1008.5
20260504220113 18 163 8.0 29.0 0.00 0.00 0.00 43 1008.4
20260504214521 19 166 8.0 29.0 0.00 0.00 0.00 42 1008.3
20260504213018 20 186 6.4 29.0 0.00 0.00 0.00 40 1008.3
20260504211514 19 180 1.6 17.7 0.00 0.00 0.00 40 1008.2
20260504210011 20 180 9.7 35.4 0.00 0.00 0.00 39 1008.2
20260504204619 20 180 9.7 25.7 0.00 0.00 0.00 37 1008.1
20260504203008 19 236 4.8 22.5 0.00 0.00 0.00 37 1008.2
20260504201536 19 198 16.1 27.4 0.00 0.00 0.00 36 1008.4